COSMOS 2251 DEB

Satellite information

Favourite Embed

Satellite Type and Status

DEBRISIN ORBIT

Key statistics

Satellite COSMOS 2251 DEB at a glance.

Uptime

11869

Days in orbit

Revolutions

≈ 14.9

Per day

Orbit

LEO

Low Earth Orbit

Inclination

74.0

Latest

Satellite identification and parameters

Extended collection of information and parameters for COSMOS 2251 DEB.

Object identification

Identified? True

Debris? True

Object name: COSMOS 2251 DEB

International designator: 1993-036ACX

Object number (NORAD): 34884

Object ID (CCSDS): 34884

Country: COMMONWEALTH OF INDEPENDENT STATES (CIS)

Current information (Y/N): Y

RCS size: SMALL

Orbital parameters

Period: 96.642 minutes

Inclination: 74.017 deg

SMA: 6975.945 km

Apoapsis: 599.474 km

Periapsis: 596.146 km

RAAN: 57.7102 deg

Eccentricy: 0.00023854

Argument of periapsis: 84.5238 deg

Mean anomaly: 331.2957 deg

Mean motion: 14.90041008 rev/day

Mean motion (dot): 0.0003699 rev/day2

B* drag term: 0.0038138263 1/REarth

Two-line elements (TLE)

Creation date: Dec. 12, 2025, 10:14 a.m.

Reference frame: TEME

Reference center: EARTH

Epoch: Dec. 12, 2025, 6:09 a.m. UTC

TLE line 0: 0 COSMOS 2251 DEB

TLE line 1: 1 34884U 93036ACX 25346.25634203 .00036990 00000-0 38138-2 0 9995

TLE line 2: 2 34884 74.0170 57.7102 0002385 84.5238 331.2957 14.90041008877984

Live tracking on map

Real-time ground track for satellite COSMOS 2251 DEB.

In-orbit conjunctions

A list of the most updated potential collisions computed for object COSMOS 2251 DEB.

Target Orbit TCA Probability of collision Miss distance Type
DELTA 1 DEB SSO 2024-09-26 10:09:40 0.0001013409 915.0 (m) DEBRIS
CZ-6A DEB SSO 2024-06-23 14:42:42 0.0001829933 115.0 (m) DEBRIS

Associated space launch

Military communications satellite. Destroyed in a collision with Iridium 33.

COSMOS 2251 DEB was lifted into orbit during the mission ‘Kosmos-3M | Strela-2M 51’, on board a Kosmos-3M space rocket.

The launch took place on June 16, 1993, 4:17 a.m. from 132/1 (132L).

For more information about the launch, click the button.

Launch to space Kosmos-3M | Strela-2M 51
Kosmos-3M | Strela-2M 51

Agency: N/A

Status: Launch Successful

Launch date: June 16, 1993, 4:17 a.m. UTC

Rocket: Kosmos-3M

Launch pad: 132/1 (132L)

Location: Plesetsk Cosmodrome, Russian Federation

...

Latest news about this satellite

There are no fresh news available about this satellite. Check back as we update our databases every day.


Newsletter sign-up

Weekly statistics, charts and insights to help you stay on top of the space industry.